Location: Caltech
(34.1382°N, 118.1253°W)
Time: 13:38:55
(UTC-07:00)

Oscar 10/S400 - Visible Passes

Search period start: 06 May 2016 00:00
Search period end: 16 May 2016 00:00
Orbit: 4031 x 35416 km, 26.7° (Epoch: 05 May)

Date Brightness Start Highest point End Pass type
(mag) Time Alt. Az. Time Alt. Az. Time Alt. Az.
06 May ? 13:13:52 10° SSW 22:51:50 79° S 23:36:17 10° ESE visible
07 May ? 12:29:38 10° S 21:54:29 79° S 22:51:37 10° E visible
08 May ? 11:47:34 10° S 20:50:08 78° SSE 22:06:36 10° E visible
09 May ? 11:10:03 10° SSE 19:43:00 74° SE 21:21:07 10° E visible
10 May ? 10:48:44 10° SE 18:44:43 67° SE 20:35:05 10° E visible
